Location: Mahannah Oil Field
(37.4664°N, 96.6003°W)
Time: 01:48:53
(UTC+00:00)

deb Explorer IX - Pass Details

Date: 28 January 2021
Orbit: 537 x 1102 km, 38.8° (Epoch: 25 February)

Event Time Altitude Azimuth Distance (km) Brightness Sun altitude
Rises 05:01:48 0° 275° (W) 3,254 - -61.2°
Reaches altitude 10° 05:05:38 10° 250° (WSW) 2,184 - -61.8°
Maximum altitude 05:08:02 13° 222° (SW) 1,876 - -62.2°
Drops below altitude 10° 05:10:18 10° 193° (SSW) 2,021 - -62.5°
Sets 05:13:36 0° 165° (SSE) 2,824 - -63.1°
